Location: Sabalos
(43.2860°N, 0.1414°E)
Time: 04:37:17
(UTC+00:00)

Meteor 1-11 - Pass Details

Date: 05 July 2020
Orbit: 842 x 886 km, 81.2° (Epoch: 06 August)

Event Time Altitude Azimuth Distance (km) Brightness Sun altitude
Exits shadow 21:05:31 12° 169° (S) 2,332 6.0 -12.3°
Maximum altitude 21:10:35 54° 94° (E) 1,037 4.4 -12.9°
Drops below altitude 10° 21:16:06 10° 19° (NNE) 2,511 7.1 -13.6°
Sets 21:18:36 0° 15° (NNE) 3,459 7.9 -13.9°
